Total_Precipitation_Accumulation
0.15 0.20 0.40 0.41 0.36 0.31 0.26 0.22 0.23 0.24 0.25 0.27 0.27 0.30 0.29 0.27 0.24 0.24 0.23 0.27 0.36 0.47 0.55 0.56 0.54 0.50 0.43 0.36 0.24 0.13 0.11 0.10 0.09 0.09 0.09 0.12 0.17 0.16 0.13 0.12 0.13 0.14 0.19
0.14 0.22 0.41 0.44 0.44 0.41 0.37 0.28 0.23 0.23 0.24 0.28 0.32 0.33 0.32 0.29 0.28 0.23 0.25 0.31 0.39 0.45 0.49 0.51 0.43 0.35 0.31 0.24 0.14 0.09 0.08 0.06 0.04 0.03 0.02 0.04 0.08 0.12 0.12 0.10 0.12 0.16 0.20
0.16 0.26 0.38 0.44 0.47 0.48 0.43 0.31 0.22 0.22 0.26 0.31 0.36 0.35 0.35 0.33 0.27 0.26 0.30 0.34 0.38 0.43 0.41 0.37 0.26 0.20 0.16 0.12 0.08 0.07 0.06 0.05 0.03 0.03 0.04 0.06 0.08 0.13 0.14 0.11 0.14 0.19 0.24
0.23 0.35 0.39 0.48 0.51 0.50 0.48 0.38 0.30 0.27 0.30 0.35 0.38 0.40 0.40 0.37 0.29 0.30 0.34 0.35 0.37 0.36 0.28 0.23 0.18 0.16 0.11 0.08 0.07 0.07 0.07 0.05 0.04 0.05 0.08 0.08 0.10 0.18 0.19 0.17 0.20 0.22 0.23
0.35 0.44 0.51 0.57 0.59 0.58 0.53 0.48 0.41 0.36 0.38 0.43 0.43 0.46 0.44 0.43 0.39 0.38 0.36 0.33 0.30 0.26 0.21 0.18 0.14 0.12 0.10 0.08 0.08 0.09 0.08 0.06 0.04 0.06 0.08 0.09 0.11 0.22 0.23 0.19 0.18 0.19 0.20
0.52 0.60 0.72 0.76 0.77 0.69 0.62 0.57 0.52 0.47 0.45 0.47 0.48 0.50 0.49 0.50 0.49 0.46 0.37 0.28 0.22 0.18 0.16 0.15 0.11 0.10 0.10 0.09 0.09 0.08 0.08 0.06 0.05 0.06 0.06 0.08 0.14 0.26 0.26 0.22 0.21 0.22 0.24
0.62 0.73 0.91 0.97 0.95 0.80 0.71 0.65 0.63 0.63 0.62 0.57 0.52 0.55 0.60 0.57 0.54 0.49 0.36 0.25 0.19 0.15 0.14 0.13 0.12 0.10 0.10 0.10 0.10 0.09 0.07 0.05 0.04 0.04 0.05 0.07 0.16 0.30 0.30 0.27 0.27 0.27 0.27
0.72 0.81 0.99 1.07 0.99 0.90 0.85 0.77 0.72 0.75 0.72 0.67 0.61 0.65 0.72 0.67 0.55 0.47 0.37 0.26 0.21 0.17 0.15 0.14 0.15 0.13 0.13 0.13 0.12 0.10 0.06 0.04 0.03 0.04 0.05 0.08 0.14 0.25 0.25 0.24 0.26 0.26 0.25
0.95 1.02 1.15 1.12 1.02 0.92 0.83 0.80 0.75 0.79 0.81 0.73 0.67 0.67 0.69 0.67 0.55 0.48 0.34 0.28 0.24 0.22 0.20 0.17 0.16 0.15 0.14 0.14 0.13 0.10 0.07 0.04 0.03 0.03 0.03 0.06 0.11 0.21 0.21 0.21 0.22 0.22 0.23
1.29 1.27 1.28 1.28 1.17 1.02 0.88 0.86 0.81 0.76 0.75 0.74 0.69 0.57 0.52 0.49 0.46 0.45 0.32 0.29 0.26 0.25 0.22 0.19 0.17 0.17 0.14 0.10 0.10 0.09 0.06 0.05 0.03 0.03 0.04 0.05 0.08 0.14 0.17 0.20 0.19 0.21 0.24
1.60 1.56 1.42 1.42 1.35 1.26 1.12 0.99 0.95 0.87 0.78 0.75 0.69 0.58 0.52 0.55 0.51 0.42 0.26 0.24 0.25 0.24 0.22 0.19 0.18 0.17 0.13 0.08 0.07 0.06 0.06 0.04 0.04 0.05 0.05 0.04 0.08 0.13 0.18 0.22 0.22 0.22 0.23
1.75 1.72 1.58 1.46 1.44 1.44 1.22 1.10 1.11 1.00 0.87 0.78 0.69 0.67 0.60 0.57 0.55 0.45 0.35 0.26 0.28 0.24 0.21 0.21 0.20 0.18 0.14 0.10 0.08 0.06 0.06 0.05 0.07 0.05 0.04 0.04 0.08 0.14 0.20 0.24 0.22 0.22 0.22
1.96 1.93 1.79 1.59 1.48 1.50 1.44 1.21 1.15 1.04 0.96 0.89 0.78 0.75 0.71 0.67 0.62 0.56 0.50 0.39 0.36 0.29 0.27 0.26 0.25 0.19 0.17 0.16 0.14 0.10 0.08 0.07 0.06 0.05 0.04 0.04 0.08 0.15 0.21 0.23 0.23 0.23 0.23
1.94 2.04 1.93 1.74 1.56 1.50 1.47 1.40 1.22 1.10 0.98 0.89 0.80 0.71 0.75 0.74 0.65 0.55 0.49 0.42 0.38 0.32 0.29 0.28 0.26 0.20 0.17 0.15 0.14 0.12 0.11 0.09 0.07 0.08 0.07 0.05 0.07 0.12 0.19 0.23 0.26 0.27 0.29
1.87 2.03 2.05 1.92 1.69 1.50 1.46 1.46 1.35 1.11 0.95 0.93 0.91 0.81 0.71 0.67 0.59 0.54 0.46 0.44 0.40 0.37 0.35 0.32 0.28 0.23 0.21 0.18 0.14 0.11 0.10 0.09 0.08 0.09 0.08 0.05 0.04 0.07 0.13 0.20 0.28 0.36 0.42
1.82 1.90 2.03 2.10 1.97 1.70 1.47 1.38 1.37 1.25 1.06 1.00 0.97 0.88 0.86 0.76 0.64 0.55 0.47 0.43 0.40 0.36 0.32 0.32 0.30 0.27 0.25 0.20 0.15 0.12 0.09 0.08 0.07 0.07 0.07 0.06 0.05 0.05 0.08 0.14 0.24 0.36 0.49
1.94 1.85 1.93 2.08 2.15 1.99 1.73 1.52 1.45 1.33 1.17 1.05 1.00 1.03 1.01 0.92 0.78 0.66 0.56 0.45 0.40 0.40 0.37 0.35 0.36 0.31 0.24 0.21 0.17 0.15 0.12 0.11 0.09 0.08 0.08 0.07 0.07 0.07 0.07 0.12 0.21 0.32 0.46
2.20 2.05 1.99 1.97 2.10 2.12 1.96 1.75 1.59 1.47 1.29 1.11 0.98 1.02 1.09 1.04 0.94 0.84 0.76 0.65 0.56 0.53 0.52 0.44 0.37 0.37 0.28 0.23 0.19 0.16 0.14 0.12 0.10 0.09 0.09 0.08 0.07 0.07 0.08 0.10 0.14 0.23 0.34
2.25 2.27 2.20 2.04 1.98 2.05 2.09 2.00 1.81 1.61 1.42 1.25 1.04 0.95 1.03 1.09 1.03 0.93 0.84 0.84 0.82 0.71 0.60 0.54 0.43 0.41 0.37 0.30 0.26 0.22 0.18 0.15 0.13 0.11 0.10 0.09 0.09 0.08 0.08 0.10 0.11 0.14 0.20
2.22 2.20 2.19 2.13 2.08 2.11 2.18 2.18 2.04 1.83 1.60 1.42 1.24 1.07 1.04 1.09 1.13 1.08 0.96 0.93 0.95 0.90 0.79 0.67 0.57 0.49 0.45 0.43 0.38 0.29 0.23 0.18 0.15 0.13 0.12 0.12 0.11 0.10 0.10 0.10 0.11 0.11 0.13
2.07 2.11 2.03 2.03 1.99 2.04 2.15 2.13 2.01 1.84 1.76 1.62 1.46 1.34 1.23 1.15 1.16 1.22 1.14 1.10 1.12 1.09 1.01 0.95 0.87 0.73 0.60 0.58 0.53 0.38 0.26 0.19 0.16 0.13 0.13 0.13 0.13 0.14 0.14 0.14 0.15 0.16 0.18
1.76 1.99 1.98 2.00 2.00 1.89 1.90 2.10 2.20 2.13 1.96 1.81 1.64 1.47 1.37 1.25 1.20 1.24 1.28 1.25 1.17 1.19 1.17 1.11 1.02 0.90 0.79 0.74 0.66 0.60 0.43 0.29 0.19 0.16 0.15 0.14 0.15 0.17 0.18 0.19 0.20 0.21 0.22
1.62 1.88 1.98 2.02 2.07 1.95 1.99 2.29 2.46 2.46 2.20 1.99 1.80 1.59 1.44 1.37 1.32 1.24 1.20 1.22 1.20 1.21 1.22 1.19 1.19 1.18 1.08 0.97 0.87 0.87 0.70 0.46 0.33 0.24 0.21 0.19 0.20 0.21 0.22 0.24 0.25 0.27 0.27
1.46 1.68 1.80 1.98 2.10 2.08 2.09 2.26 2.26 2.13 1.97 1.79 1.80 1.74 1.63 1.53 1.41 1.34 1.28 1.22 1.20 1.19 1.17 1.22 1.24 1.25 1.27 1.18 1.07 0.98 0.89 0.71 0.64 0.46 0.32 0.30 0.32 0.31 0.30 0.28 0.28 0.30 0.31
1.31 1.53 1.60 1.73 1.89 1.97 1.94 2.05 2.25 2.09 1.89 1.78 1.75 1.72 1.66 1.62 1.52 1.41 1.32 1.31 1.28 1.24 1.21 1.23 1.28 1.28 1.28 1.27 1.21 1.12 1.06 0.92 0.79 0.73 0.55 0.43 0.42 0.40 0.39 0.37 0.34 0.34 0.34
1.09 1.36 1.49 1.61 1.73 1.85 1.84 1.87 2.06 1.99 1.80 1.63 1.57 1.57 1.52 1.51 1.45 1.35 1.28 1.25 1.23 1.21 1.19 1.15 1.19 1.22 1.22 1.19 1.16 1.11 1.10 1.03 0.90 0.88 0.80 0.61 0.56 0.51 0.52 0.52 0.49 0.46 0.44